This is the latest recevied weather packets stored in our database for station/object AE5TC. If no packets are shown the sender has not sent any weather packets the latest 10 day(s).
| Time | Temp. | Humidity | Pressure | Rain* | Wind** | Luminosity | Snow |
|---|---|---|---|---|---|---|---|
| 1777586084 | 25° C | 86% | 1009.7 hPa | 0 mm | - | 76 W/m² | - |
| 1777585782 | 25° C | 86% | 1009.4 hPa | 0 mm | - | 99 W/m² | - |
| 1777585477 | 25° C | 85% | 1009.6 hPa | 0 mm | - | 129 W/m² | - |
| 1777585173 | 25° C | 85% | 1009.5 hPa | 0 mm | - | 138 W/m² | - |
| 1777584868 | 25° C | 85% | 1009.7 hPa | 0 mm | - | 124 W/m² | - |
| 1777584566 | 25° C | 84% | 1009.7 hPa | 0 mm | - | 107 W/m² | - |
| 1777584263 | 25° C | 84% | 1009.7 hPa | 0 mm | - | 122 W/m² | - |
| 1777583958 | 25° C | 84% | 1009.8 hPa | 0 mm | - | 111 W/m² | - |
| 1777583653 | 25° C | 85% | 1009.8 hPa | 0 mm | - | 125 W/m² | - |
| 1777583352 | 25° C | 85% | 1009.7 hPa | 0 mm | - | 105 W/m² | - |
| 1777583047 | 25° C | 85% | 1009.8 hPa | 0 mm | - | 116 W/m² | - |
| 1777582744 | 25° C | 85% | 1009.7 hPa | 0 mm | - | 116 W/m² | - |
| 1777582439 | 25° C | 84% | 1009.6 hPa | 0 mm | - | 115 W/m² | - |
| 1777582139 | 25° C | 85% | 1009.5 hPa | 0 mm | - | 131 W/m² | - |
| 1777581838 | 25° C | 85% | 1009.4 hPa | 0 mm | - | 131 W/m² | - |
| 1777581536 | 24.44° C | 85% | 1009.3 hPa | 0 mm | - | 127 W/m² | - |
| 1777581233 | 25° C | 84% | 1009.7 hPa | 0 mm | - | 131 W/m² | - |
| 1777580927 | 25° C | 85% | 1009.6 hPa | 0 mm | - | 135 W/m² | - |
| 1777580627 | 25° C | 85% | 1009.6 hPa | 0 mm | - | 115 W/m² | - |
| 1777580323 | 25° C | 85% | 1009.6 hPa | 0 mm | - | 114 W/m² | - |
| 1777580015 | 25° C | 85% | 1010.2 hPa | 0 mm | - | 101 W/m² | - |
| 1777579710 | 25° C | 84% | 1010.1 hPa | 0 mm | - | 104 W/m² | - |
| 1777579409 | 25.56° C | 83% | 1010.2 hPa | 0 mm | - | 103 W/m² | - |
| 1777579103 | 26.11° C | 82% | 1010 hPa | 0 mm | - | 131 W/m² | - |
| 1777578798 | 26.11° C | 82% | 1010.1 hPa | 0 mm | - | 174 W/m² | - |
* Rain latest hour (hover to see other rain measurements)
** Current wind speed in m/s (hover to see current wind gust speed)